CW4226 Weather Reports


Display with metric or nautical units.
time (UTC)temp
F
wind
direction
speed
MPH
gust
MPH
rain 1hr
in
rain 24hr
in
rain mn
in
humidity
%
barometer
mb
20260503060302 39 79 2.0 3.0 0.00 0.00 0.00 66 1009.2
20260503054749 40 68 2.0 3.0 0.00 0.00 0.00 65 1009.2
20260503054554 40 115 0.0 1.0 0.00 0.00 0.00 65 1008.6
20260503054246 40 68 2.0 2.0 0.00 0.00 0.00 65 1009.5
20260503053744 40 71 2.0 3.0 0.00 0.00 0.00 64 1009.1
20260503053242 40 60 1.0 2.0 0.00 0.00 0.00 64 1009.5
20260503052738 40 70 1.0 2.0 0.00 0.00 0.00 64 1009.5
20260503052235 40 85 2.0 2.0 0.00 0.00 0.00 62 1009.5
20260503051730 40 72 2.0 3.0 0.00 0.00 0.00 63 1009.4
20260503051555 41 127 0.0 1.0 0.00 0.00 0.00 63 1008.6
20260503051228 40 67 2.0 3.0 0.00 0.00 0.00 62 1009.3
20260503050724 40 70 2.0 2.0 0.00 0.00 0.00 62 1009.5
20260503050221 40 45 1.0 2.0 0.00 0.00 0.00 61 1009.6
20260503050054 41 127 0.0 1.0 0.00 0.00 0.00 62 1008.8
20260503045718 41 64 1.0 2.0 0.00 0.00 0.00 61 1009.5
20260503045216 41 56 2.0 3.0 0.00 0.00 0.00 61 1009.8
20260503044712 41 52 1.0 2.0 0.00 0.00 0.00 60 1009.6
20260503044210 41 51 1.0 3.0 0.00 0.00 0.00 61 1009.7
20260503043706 41 72 0.0 2.0 0.00 0.00 0.00 60 1009.7
20260503043204 41 67 2.0 2.0 0.00 0.00 0.00 61 1009.8
20260503043055 42 127 0.0 2.0 0.00 0.00 0.00 61 1008.9
20260503042659 41 67 1.0 2.0 0.00 0.00 0.00 60 1009.7
20260503042156 41 65 2.0 3.0 0.00 0.00 0.00 58 1009.7
20260503041652 41 65 0.0 4.0 0.00 0.00 0.00 57 1009.9
20260503041554 42 47 1.0 3.0 0.00 0.00 0.00 59 1009.0
20260503041150 41 76 2.0 3.0 0.00 0.00 0.00 58 1009.9
20260503040648 42 66 2.0 2.0 0.00 0.00 0.00 59 1009.9
20260503040145 42 62 2.0 3.0 0.00 0.00 0.00 58 1009.9
20260503035641 42 46 2.0 2.0 0.00 0.00 0.00 58 1009.9
20260503035139 42 60 1.0 3.0 0.00 0.00 0.00 57 1009.8
20260503034636 42 62 1.0 4.0 0.00 0.00 0.00 56 1009.7
20260503034554 42 115 1.0 3.0 0.00 0.01 0.00 56 1009.1
20260503034133 42 61 2.0 4.0 0.00 0.00 0.00 57 1009.8
20260503033630 42 72 2.0 3.0 0.00 0.00 0.00 57 1009.8
20260503033128 42 40 0.0 2.0 0.00 0.00 0.00 55 1009.6
20260503033054 43 208 0.0 2.0 0.00 0.02 0.00 55 1009.0
20260503032626 42 59 2.0 2.0 0.00 0.00 0.00 55 1009.7
20260503032124 42 70 1.0 2.0 0.00 0.00 0.00 53 1009.8
20260503031622 42 73 2.0 3.0 0.00 0.00 0.00 53 1009.6
20260503031119 43 75 2.0 3.0 0.00 0.00 0.00 53 1009.7
20260503030615 43 83 2.0 3.0 0.00 0.00 0.00 52 1009.7
20260503030112 43 79 1.0 2.0 0.00 0.00 0.00 53 1010.0
20260503030054 43 74 0.0 3.0 0.00 0.03 0.00 53 1009.0
20260503025609 43 70 3.0 3.0 0.00 0.00 0.00 52 1009.9
20260503025107 43 63 2.0 2.0 0.00 0.00 0.00 54 1009.9
20260503024603 43 55 1.0 2.0 0.00 0.00 0.00 53 1009.7
20260503024554 44 98 0.0 2.0 0.00 0.03 0.00 54 1008.9
20260503024100 43 65 1.0 3.0 0.00 0.00 0.00 53 1009.8
20260503023556 43 62 2.0 2.0 0.00 0.00 0.00 53 1009.9
20260503023055 44 63 0.0 1.0 0.00 0.03 0.00 53 1009.1
20260503022550 43 44 1.0 2.0 0.00 0.00 0.00 54 1009.9
20260503022044 43 67 2.0 2.0 0.00 0.00 0.00 56 1009.8
20260503021555 44 62 0.0 1.0 0.00 0.04 0.00 53 1009.1
20260503021542 43 68 2.0 2.0 0.00 0.00 0.00 53 1009.8
20260503021038 43 58 2.0 2.0 0.00 0.00 0.00 53 1009.8
20260503020536 43 49 2.0 2.0 0.00 0.00 0.00 54 1009.9
20260503020054 44 62 0.0 1.0 0.00 0.04 0.00 53 1009.1
20260503020033 44 56 1.0 2.0 0.00 0.00 0.00 53 1009.9
20260503015529 44 44 0.0 2.0 0.00 0.00 0.00 54 1009.9
20260503015026 44 48 2.0 2.0 0.00 0.00 0.00 52 1009.7
20260503014555 45 42 0.0 1.0 0.00 0.04 0.00 54 1008.8
20260503014522 44 62 2.0 2.0 0.00 0.00 0.00 54 1009.6
20260503014021 44 44 0.0 2.0 0.00 0.00 0.00 56 1009.6
20260503013517 44 60 2.0 2.0 0.00 0.00 0.00 51 1009.6
20260503013055 45 47 0.0 1.0 0.00 0.04 0.00 51 1008.7
20260503013015 44 37 2.0 4.0 0.00 0.00 0.00 51 1009.5
20260503012513 44 56 2.0 2.0 0.00 0.00 0.00 52 1009.5
20260503012009 44 58 1.0 2.0 0.00 0.00 0.00 51 1009.6
20260503011554 45 40 0.0 2.0 0.00 0.04 0.00 51 1008.6
20260503011506 44 47 2.0 2.0 0.00 0.00 0.00 50 1009.4
20260503011003 44 51 2.0 2.0 0.00 0.00 0.00 52 1009.5
20260503010459 44 37 2.0 3.0 0.00 0.00 0.00 51 1009.5
20260503010054 45 59 0.0 3.0 0.00 0.04 0.00 50 1008.7
20260503005956 45 64 3.0 3.0 0.00 0.00 0.00 50 1009.2
20260503005453 45 38 2.0 5.0 0.00 0.00 0.00 49 1009.1
20260503004950 45 67 2.0 3.0 0.00 0.00 0.00 50 1009.2
20260503004555 45 61 1.0 3.0 0.00 0.05 0.00 51 1008.4
20260503004447 45 64 2.0 4.0 0.00 0.00 0.00 49 1009.1
20260503003945 45 67 2.0 3.0 0.00 0.00 0.00 50 1009.2
20260503003441 45 52 2.0 3.0 0.00 0.00 0.00 49 1008.9
20260503003054 46 357 1.0 3.0 0.00 0.07 0.00 50 1008.3
20260503002938 45 52 2.0 6.0 0.00 0.00 0.00 49 1009.1
20260503002435 45 77 0.0 3.0 0.00 0.00 0.00 49 1008.9
20260503001931 46 46 3.0 7.0 0.00 0.00 0.00 48 1008.9
20260503001555 46 107 0.0 2.0 0.00 0.07 0.00 48 1008.2
20260503001428 46 53 0.0 2.0 0.00 0.00 0.00 49 1008.9
20260503000926 46 67 2.0 3.0 0.00 0.00 0.00 47 1008.9
20260503000423 46 51 3.0 4.0 0.00 0.00 0.00 48 1008.8
20260503000055 47 123 0.0 2.0 0.00 0.08 0.00 48 1008.1
20260502235920 46 76 2.0 3.0 0.00 0.00 0.00 49 1008.9
20260502235417 46 72 2.0 3.0 0.00 0.00 0.00 48 1008.9
20260502234914 46 83 2.0 2.0 0.00 0.00 0.00 47 1008.8
20260502234553 47 130 0.0 2.0 0.00 0.09 0.00 47 1008.1
20260502234411 46 46 2.0 2.0 0.00 0.00 0.00 47 1008.8
20260502233908 47 78 1.0 3.0 0.00 0.00 0.00 47 1009.1
20260502233403 47 67 0.0 3.0 0.00 0.00 0.00 47 1009.0
20260502233054 48 325 0.0 2.0 0.00 0.09 0.00 47 1008.1
20260502232901 47 65 1.0 2.0 0.00 0.00 0.00 46 1008.6
20260502232357 47 64 1.0 2.0 0.00 0.00 0.00 47 1008.7
20260502231853 47 60 1.0 2.0 0.00 0.00 0.00 46 1008.7
20260502231555 48 165 0.0 3.0 0.00 0.10 0.00 47 1007.9
20260502231351 48 74 0.0 2.0 0.00 0.00 0.00 47 1008.7
20260502230849 48 54 2.0 4.0 0.00 0.00 0.00 45 1008.6
20260502230347 48 60 2.0 5.0 0.00 0.00 0.00 45 1008.7
20260502225844 48 92 3.0 3.0 0.00 0.00 0.00 44 1008.6
20260502225340 49 57 3.0 4.0 0.00 0.00 0.00 43 1008.6
20260502224837 49 61 1.0 4.0 0.00 0.00 0.00 43 1008.6
20260502224554 49 142 0.0 3.0 0.00 0.11 0.00 43 1007.7
20260502224333 49 74 3.0 3.0 0.00 0.00 0.00 43 1008.5
20260502223831 49 77 2.0 3.0 0.00 0.00 0.00 43 1008.4
20260502223329 49 63 1.0 3.0 0.00 0.00 0.00 42 1008.3
20260502223055 50 120 1.0 3.0 0.00 0.11 0.00 42 1007.6
20260502222826 49 64 2.0 3.0 0.00 0.00 0.00 45 1008.3
20260502222324 49 105 0.0 4.0 0.00 0.00 0.00 41 1008.2
20260502221819 50 42 1.0 4.0 0.00 0.00 0.00 42 1008.1
20260502221554 50 50 0.0 3.0 0.00 0.11 0.00 41 1007.6
20260502221316 50 52 0.0 3.0 0.00 0.00 0.00 41 1008.3
20260502220814 50 50 3.0 5.0 0.00 0.00 0.00 40 1008.5
20260502220309 50 86 1.0 3.0 0.00 0.00 0.00 39 1008.3
20260502220053 50 83 1.0 3.0 0.00 0.11 0.00 40 1007.6
20260502215806 50 55 2.0 4.0 0.00 0.00 0.00 41 1008.4
20260502215304 50 60 2.0 4.0 0.00 0.00 0.00 39 1008.3
20260502214800 51 88 3.0 3.0 0.00 0.00 0.00 39 1008.1
20260502214256 51 55 0.0 1.0 0.00 0.00 0.00 39 1008.1
20260502213754 51 70 3.0 5.0 0.00 0.00 0.00 38 1008.1
20260502213251 51 46 3.0 7.0 0.00 0.00 0.00 40 1008.0
20260502213055 51 112 1.0 3.0 0.00 0.11 0.00 39 1007.3
20260502212750 51 83 2.0 3.0 0.00 0.00 0.00 40 1008.1
20260502212248 50 56 0.0 2.0 0.00 0.00 0.00 42 1008.1
20260502211743 51 240 0.0 2.0 0.00 0.00 0.00 40 1007.9
20260502211554 51 115 0.0 3.0 0.00 0.11 0.00 38 1007.1
20260502211240 51 67 2.0 3.0 0.00 0.00 0.00 37 1008.0
20260502210737 51 89 0.0 3.0 0.00 0.00 0.00 39 1007.9
20260502210235 51 77 4.0 4.0 0.00 0.00 0.00 39 1008.0
20260502210055 52 305 0.0 3.0 0.00 0.11 0.00 40 1007.1
20260502205732 52 102 0.0 2.0 0.00 0.00 0.00 37 1008.1
20260502205228 52 63 2.0 3.0 0.00 0.00 0.00 40 1007.9
20260502204725 53 84 2.0 4.0 0.00 0.00 0.00 37 1008.0
20260502204554 53 36 1.0 3.0 0.00 0.11 0.00 36 1007.1
20260502204223 53 76 2.0 4.0 0.00 0.00 0.00 36 1008.0
20260502203720 53 76 0.0 3.0 0.00 0.00 0.00 38 1008.2
20260502203218 52 85 3.0 4.0 0.00 0.00 0.00 41 1008.2
20260502203055 53 183 1.0 3.0 0.00 0.11 0.00 37 1007.3
20260502202712 53 106 0.0 3.0 0.00 0.00 0.00 37 1008.1
20260502202210 53 32 2.0 2.0 0.00 0.00 0.00 43 1008.1
20260502201707 53 57 3.0 3.0 0.00 0.00 0.00 40 1008.1
20260502201554 52 228 0.0 3.0 0.00 0.11 0.00 38 1007.3
20260502201204 52 53 0.0 3.0 0.00 0.00 0.00 40 1008.1
20260502200700 53 65 3.0 4.0 0.00 0.00 0.00 38 1008.4
20260502200156 53 72 4.0 4.0 0.00 0.00 0.00 36 1008.5
20260502200054 52 67 1.0 3.0 0.00 0.11 0.00 36 1007.5
20260502195655 52 38 0.0 3.0 0.00 0.00 0.00 36 1008.2
20260502195151 52 132 2.0 3.0 0.00 0.00 0.00 37 1008.4
20260502194648 52 275 1.0 3.0 0.00 0.00 0.00 41 1008.5
20260502194554 52 123 1.0 3.0 0.00 0.11 0.00 39 1007.6
20260502194144 52 245 0.0 2.0 0.00 0.00 0.00 41 1008.5
20260502193640 53 219 1.0 3.0 0.00 0.00 0.00 35 1008.6
20260502193138 53 266 0.0 3.0 0.00 0.00 0.00 40 1008.7
20260502193055 52 262 1.0 3.0 0.00 0.11 0.00 39 1008.0
20260502192633 53 49 1.0 3.0 0.00 0.00 0.00 40 1008.9
20260502192131 53 257 1.0 3.0 0.00 0.00 0.00 38 1009.0
20260502191627 52 226 0.0 2.0 0.00 0.00 0.00 43 1008.9
20260502191554 52 250 1.0 3.0 0.00 0.11 0.00 41 1008.2
20260502191125 52 248 1.0 2.0 0.00 0.00 0.00 41 1009.1
20260502190622 52 68 0.0 4.0 0.00 0.00 0.00 42 1009.0
20260502190121 52 44 2.0 4.0 0.00 0.00 0.00 39 1009.3
20260502190054 52 144 1.0 3.0 0.00 0.11 0.00 39 1008.3
20260502185614 53 315 0.0 2.0 0.00 0.00 0.00 40 1009.2
20260502185111 53 92 3.0 4.0 0.00 0.00 0.00 37 1009.2
20260502184607 53 231 0.0 4.0 0.00 0.00 0.00 35 1009.2
20260502184554 53 250 1.0 3.0 0.00 0.11 0.00 38 1008.3
20260502184103 52 322 0.0 3.0 0.00 0.00 0.00 41 1009.2
20260502183600 54 214 2.0 4.0 0.00 0.00 0.00 41 1009.0
20260502183056 53 55 0.0 2.0 0.00 0.00 0.00 37 1009.1
20260502182551 52 68 3.0 4.0 0.00 0.00 0.00 38 1009.3
20260502182047 53 238 2.0 4.0 0.00 0.00 0.00 41 1009.4
20260502181554 54 211 1.0 5.0 0.00 0.11 0.00 35 1008.4
20260502181545 55 281 0.0 3.0 0.00 0.00 0.00 37 1009.2
20260502181044 54 53 1.0 3.0 0.00 0.00 0.00 37 1009.1
20260502180540 54 57 1.0 4.0 0.00 0.00 0.00 32 1009.5
20260502170459 51 46 2.0 5.0 0.00 0.00 0.00 41 1009.3
20260502163943 51 255 2.0 4.0 0.00 0.00 0.00 42 1009.2
20260502163439 53 216 2.0 9.0 0.00 0.00 0.00 50 1009.4
20260502163055 54 229 3.0 6.0 0.00 0.11 0.00 40 1008.5
20260502162937 54 224 4.0 4.0 0.00 0.00 0.00 41 1009.6
20260502162434 54 67 3.0 4.0 0.00 0.00 0.00 43 1009.7
20260502161931 54 246 1.0 3.0 0.00 0.00 0.00 46 1009.6
20260502161554 53 223 2.0 5.0 0.00 0.11 0.00 50 1008.9
20260502161426 54 241 3.0 3.0 0.00 0.00 0.00 43 1009.8
20260502160925 52 251 0.0 3.0 0.00 0.00 0.00 47 1009.8
20260502160423 51 239 3.0 3.0 0.00 0.00 0.00 51 1009.7
20260502151901 51 73 0.0 4.0 0.00 0.00 0.00 45 1010.1
20260502151554 50 266 1.0 5.0 0.00 0.11 0.00 44 1009.1
20260502151357 51 97 3.0 5.0 0.00 0.00 0.00 43 1009.8
20260502150855 49 74 1.0 4.0 0.00 0.00 0.00 44 1009.8
20260502150351 51 50 0.0 2.0 0.00 0.00 0.00 46 1009.8
20260502130739 45 221 0.0 3.0 0.00 0.00 0.00 68 1010.5
20260502130237 44 50 2.0 5.0 0.00 0.00 0.00 69 1010.2
20260502123723 44 63 2.0 2.0 0.00 0.00 0.00 68 1010.5
20260502123219 44 87 2.0 2.0 0.00 0.00 0.00 74 1010.2
20260502123054 43 261 1.0 2.0 0.00 0.11 0.00 78 1009.7
20260502122716 43 66 0.0 3.0 0.00 0.00 0.00 75 1010.3
20260502122212 44 75 0.0 3.0 0.00 0.00 0.00 75 1010.1
20260502121711 44 336 0.0 3.0 0.00 0.00 0.00 77 1010.1
20260502121554 43 153 1.0 3.0 0.00 0.11 0.00 81 1009.5
20260502121209 44 68 1.0 3.0 0.00 0.00 0.00 75 1010.1
20260502120704 44 60 1.0 2.0 0.00 0.00 0.00 78 1010.0
20260502120201 45 238 1.0 3.0 0.00 0.00 0.00 75 1010.2
20260502115659 46 60 1.0 2.0 0.00 0.00 0.00 76 1010.3
20260502115155 44 55 0.0 4.0 0.00 0.00 0.00 77 1010.1
20260502114651 44 61 2.0 4.0 0.00 0.00 0.00 78 1010.0
20260502114554 42 186 0.0 2.0 0.00 0.11 0.00 85 1009.4
20260502114149 44 57 2.0 2.0 0.00 0.00 0.00 81 1010.0
20260502113646 42 48 0.0 2.0 0.00 0.00 0.00 84 1010.1
20260502113144 41 64 2.0 3.0 0.00 0.00 0.00 87 1010.0
20260502113055 41 153 0.0 1.0 0.00 0.11 0.00 87 1009.4
20260502112642 40 206 0.0 3.0 0.00 0.00 0.00 87 1009.8
20260502112139 40 53 0.0 2.0 0.00 0.00 0.00 88 1010.1
20260502111636 40 74 0.0 3.0 0.00 0.00 0.00 88 1010.3
20260502111554 41 153 0.0 1.0 0.00 0.11 0.00 88 1009.8
20260502111134 40 64 2.0 2.0 0.00 0.00 0.00 88 1010.3
20260502110632 40 87 1.0 2.0 0.00 0.00 0.00 89 1010.1
20260502110129 40 57 0.0 2.0 0.00 0.00 0.00 89 1009.9
20260502105626 40 57 2.0 2.0 0.00 0.00 0.00 90 1009.9
20260502105123 40 53 2.0 2.0 0.00 0.00 0.00 90 1010.0
20260502104620 40 60 1.0 3.0 0.00 0.00 0.00 90 1010.0
20260502104553 41 118 0.0 0.0 0.00 0.11 0.00 90 1009.3
20260502104118 40 51 1.0 2.0 0.00 0.00 0.00 91 1010.1
20260502103615 40 59 2.0 3.0 0.00 0.00 0.00 91 1009.8
20260502103113 40 58 1.0 2.0 0.00 0.00 0.00 91 1009.7
20260502102609 40 55 2.0 2.0 0.00 0.00 0.00 91 1009.6
20260502102106 40 63 2.0 2.0 0.00 0.00 0.00 91 1009.8
20260502101604 40 62 2.0 2.0 0.00 0.00 0.00 91 1009.6
20260502101102 40 61 2.0 2.0 0.00 0.00 0.00 90 1009.6
20260502100600 40 66 2.0 2.0 0.00 0.00 0.00 90 1009.7
20260502091032 40 62 1.0 2.0 0.00 0.00 0.00 88 1009.1
20260502090529 40 59 2.0 2.0 0.00 0.00 0.00 88 1009.1
20260502071424 42 66 1.0 2.0 0.00 0.00 0.00 92 1008.0
20260502070922 42 57 0.0 2.0 0.00 0.00 0.00 92 1008.0
20260502070419 42 73 2.0 2.0 0.00 0.00 0.00 92 1008.2
20260502070054 43 178 1.0 2.0 0.00 0.11 0.00 92 1007.1
20260502065918 42 69 1.0 2.0 0.00 0.00 0.00 92 1008.1
20260502065416 42 63 2.0 2.0 0.00 0.00 0.00 92 1008.2
20260502064913 42 66 1.0 2.0 0.00 0.00 0.00 92 1008.4
20260502064554 43 136 0.0 1.0 0.00 0.11 0.00 91 1007.2
20260502064411 42 50 1.0 2.0 0.00 0.00 0.00 92 1008.1
20260502063908 42 69 2.0 2.0 0.00 0.00 0.00 92 1008.3
20260502063406 42 64 1.0 2.0 0.00 0.00 0.00 93 1008.5
20260502063055 43 127 0.0 1.0 0.00 0.11 0.00 92 1007.3